Wetterdaten: aktuell Dienstag, 24.04.2018 19:28
Datum Zeit Innentemp. Temp Boden Temp Norden Innenfeuchte Licht Bodenfeuchte Feuchte Nord Luftdruck Regenmenge Windstrke Windrichtung Windrichtung Sonne Zeit Windchill
24.04.2018 19:28 22,9 C 18,7 C 20,8 C 53 % 34 % 64 % 47 % 1015 hPa 0,0 l/m 11,9 km/h W22.5 275 0 min 20,8 C
24.04.2018 19:23 22,9 C 18,9 C 20,9 C 53 % 36 % 64 % 46 % 1015 hPa 0,0 l/m 9,1 km/h W22.5 280 0 min 20,9 C
24.04.2018 19:18 22,9 C 18,9 C 20,9 C 52 % 39 % 64 % 46 % 1015 hPa 0,0 l/m 7,5 km/h W45 280 0 min 20,9 C
24.04.2018 19:13 22,9 C 18,9 C 21,0 C 52 % 45 % 64 % 46 % 1015 hPa 0,0 l/m 11,3 km/h W22.5 280 0 min 21,0 C
24.04.2018 19:08 23,0 C 19,0 C 21,0 C 52 % 58 % 64 % 46 % 1015 hPa 0,0 l/m 11,3 km/h W-NW22.5 285 0 min 21,0 C
24.04.2018 19:03 23,0 C 19,1 C 21,0 C 52 % 52 % 64 % 46 % 1015 hPa 0,0 l/m 11,0 km/h W22.5 280 0 min 21,0 C
24.04.2018 18:58 23,0 C 19,1 C 21,1 C 52 % 56 % 63 % 45 % 1015 hPa 0,0 l/m 8,6 km/h W-NW22.5 290 0 min 21,1 C
24.04.2018 18:53 23,0 C 19,2 C 21,1 C 52 % 58 % 63 % 45 % 1015 hPa 0,0 l/m 10,2 km/h W-NW22.5 285 0 min 21,1 C
24.04.2018 18:48 23,1 C 19,2 C 21,2 C 52 % 60 % 63 % 44 % 1015 hPa 0,0 l/m 9,7 km/h W-NW67.5 300 0 min 21,2 C
24.04.2018 18:43 23,1 C 19,2 C 21,2 C 51 % 62 % 63 % 44 % 1016 hPa 0,0 l/m 12,8 km/h W-NW45 300 0 min 21,2 C
24.04.2018 18:38 23,1 C 19,2 C 21,2 C 51 % 59 % 63 % 44 % 1016 hPa 0,0 l/m 15,0 km/h W-NW45 290 0 min 21,2 C
24.04.2018 18:33 23,2 C 19,2 C 21,3 C 52 % 62 % 63 % 45 % 1016 hPa 0,0 l/m 13,0 km/h W45 275 0 min 21,3 C
24.04.2018 18:28 23,2 C 19,2 C 21,3 C 52 % 64 % 63 % 45 % 1016 hPa 0,0 l/m 14,1 km/h W67.5 265 0 min 21,3 C
24.04.2018 18:23 23,2 C 19,2 C 21,3 C 52 % 67 % 63 % 45 % 1016 hPa 0,0 l/m 12,4 km/h W45 280 0 min 21,3 C
24.04.2018 18:18 23,2 C 19,2 C 21,4 C 52 % 69 % 63 % 45 % 1016 hPa 0,0 l/m 11,4 km/h W-NW45 290 0 min 21,4 C
24.04.2018 18:13 23,2 C 19,3 C 21,4 C 52 % 69 % 64 % 45 % 1016 hPa 0,0 l/m 20,4 km/h W45 275 0 min 21,4 C
24.04.2018 18:08 23,2 C 19,3 C 21,4 C 52 % 74 % 63 % 45 % 1016 hPa 0,0 l/m 7,3 km/h W45 270 5 min 21,4 C
24.04.2018 18:03 23,3 C 19,5 C 21,4 C 53 % 72 % 63 % 45 % 1016 hPa 0,0 l/m 11,3 km/h W45 275 5 min 21,4 C
24.04.2018 17:58 23,3 C 19,4 C 21,5 C 53 % 78 % 62 % 45 % 1016 hPa 0,0 l/m 9,6 km/h W45 275 5 min 21,5 C
24.04.2018 17:53 23,3 C 19,5 C 21,4 C 53 % 75 % 62 % 44 % 1016 hPa 0,0 l/m 15,8 km/h W-NW22.5 285 5 min 21,4 C
24.04.2018 17:48 23,3 C 19,4 C 21,4 C 54 % 78 % 62 % 45 % 1016 hPa 0,0 l/m 13,8 km/h W45 270 5 min 21,4 C
24.04.2018 17:43 23,3 C 19,4 C 21,4 C 54 % 78 % 63 % 44 % 1016 hPa 0,0 l/m 11,8 km/h NW67.5 305 5 min 21,4 C
24.04.2018 17:38 23,3 C 19,4 C 21,4 C 54 % 79 % 64 % 44 % 1016 hPa 0,0 l/m 15,0 km/h W45 270 5 min 21,4 C
24.04.2018 17:33 23,4 C 19,3 C 21,4 C 54 % 79 % 64 % 45 % 1016 hPa 0,0 l/m 10,8 km/h W-SW67.5 240 5 min 21,4 C
24.04.2018 17:28 23,3 C 19,3 C 21,4 C 54 % 79 % 64 % 45 % 1016 hPa 0,0 l/m 13,5 km/h W67.5 270 5 min 21,4 C
24.04.2018 17:23 23,3 C 19,4 C 21,4 C 54 % 79 % 64 % 44 % 1016 hPa 0,0 l/m 13,6 km/h W45 275 5 min 21,4 C
24.04.2018 17:18 23,3 C 19,4 C 21,4 C 54 % 80 % 64 % 45 % 1016 hPa 0,0 l/m 19,0 km/h W22.5 275 5 min 21,4 C
24.04.2018 17:13 23,4 C 19,5 C 21,4 C 54 % 79 % 64 % 46 % 1016 hPa 0,0 l/m 15,6 km/h W45 270 5 min 21,4 C
24.04.2018 17:08 23,3 C 19,5 C 21,4 C 54 % 82 % 64 % 45 % 1016 hPa 0,0 l/m 18,7 km/h W45 275 5 min 21,4 C
24.04.2018 17:03 23,3 C 19,5 C 21,3 C 54 % 81 % 64 % 45 % 1016 hPa 0,0 l/m 15,6 km/h W45 280 5 min 21,3 C
24.04.2018 16:58 23,3 C 19,5 C 21,3 C 54 % 82 % 63 % 46 % 1017 hPa 0,0 l/m 17,1 km/h W67.5 265 5 min 21,3 C
24.04.2018 16:53 23,3 C 19,4 C 21,3 C 54 % 79 % 63 % 46 % 1017 hPa 0,0 l/m 16,8 km/h W67.5 260 5 min 21,3 C
24.04.2018 16:48 23,2 C 19,4 C 21,4 C 54 % 77 % 64 % 46 % 1017 hPa 0,0 l/m 13,0 km/h W-NW67.5 290 5 min 21,4 C
24.04.2018 16:43 23,2 C 19,5 C 21,3 C 54 % 78 % 64 % 46 % 1017 hPa 0,0 l/m 12,8 km/h W67.5 265 5 min 21,3 C
24.04.2018 16:38 23,2 C 19,4 C 21,3 C 54 % 83 % 63 % 46 % 1017 hPa 0,0 l/m 15,6 km/h W67.5 270 5 min 21,3 C
24.04.2018 16:33 23,2 C 19,3 C 21,2 C 54 % 84 % 63 % 45 % 1017 hPa 0,0 l/m 17,7 km/h W67.5 275 5 min 21,2 C
24.04.2018 16:28 23,2 C 19,4 C 21,2 C 54 % 86 % 63 % 45 % 1017 hPa 0,0 l/m 18,6 km/h W45 280 5 min 21,2 C
24.04.2018 16:23 23,2 C 19,4 C 21,2 C 54 % 82 % 63 % 45 % 1017 hPa 0,0 l/m 19,0 km/h W67.5 270 5 min 21,2 C
24.04.2018 16:18 23,2 C 19,5 C 21,2 C 54 % 81 % 64 % 46 % 1017 hPa 0,0 l/m 14,7 km/h W67.5 270 5 min 21,2 C
24.04.2018 16:13 23,1 C 19,4 C 21,1 C 54 % 85 % 63 % 46 % 1017 hPa 0,0 l/m 15,1 km/h W45 275 5 min 21,1 C
24.04.2018 16:08 23,1 C 19,4 C 21,1 C 54 % 81 % 63 % 45 % 1017 hPa 0,0 l/m 19,4 km/h W45 280 5 min 21,1 C
24.04.2018 16:03 23,0 C 19,5 C 21,1 C 54 % 85 % 63 % 47 % 1017 hPa 0,0 l/m 15,5 km/h W67.5 260 5 min 21,1 C
24.04.2018 15:58 23,1 C 19,5 C 21,0 C 54 % 84 % 63 % 48 % 1017 hPa 0,0 l/m 24,0 km/h W67.5 275 5 min 21,0 C
24.04.2018 15:53 23,0 C 19,4 C 21,0 C 54 % 87 % 64 % 48 % 1017 hPa 0,0 l/m 17,7 km/h W-NW67.5 295 5 min 21,0 C
24.04.2018 15:48 23,0 C 19,4 C 21,0 C 54 % 88 % 65 % 47 % 1017 hPa 0,0 l/m 13,0 km/h W-NW67.5 290 5 min 21,0 C
24.04.2018 15:43 23,0 C 19,4 C 20,9 C 54 % 81 % 65 % 48 % 1017 hPa 0,0 l/m 19,7 km/h W-NW67.5 290 5 min 20,9 C
24.04.2018 15:38 23,0 C 19,3 C 20,9 C 54 % 78 % 66 % 49 % 1018 hPa 0,0 l/m 18,3 km/h W45 265 5 min 20,9 C
24.04.2018 15:33 23,0 C 19,3 C 20,8 C 54 % 77 % 66 % 50 % 1018 hPa 0,0 l/m 20,7 km/h W-NW67.5 285 5 min 20,8 C
24.04.2018 15:28 23,0 C 19,3 C 20,8 C 54 % 83 % 66 % 49 % 1018 hPa 0,0 l/m 13,5 km/h W67.5 270 5 min 20,8 C
24.04.2018 15:23 22,9 C 19,3 C 20,8 C 54 % 82 % 67 % 50 % 1018 hPa 0,0 l/m 12,1 km/h W-NW67.5 285 5 min 20,8 C
24.04.2018 15:18 22,9 C 19,2 C 20,7 C 54 % 81 % 66 % 50 % 1018 hPa 0,0 l/m 10,1 km/h W-SW45 240 5 min 20,7 C
24.04.2018 15:13 22,9 C 19,3 C 20,6 C 54 % 81 % 67 % 50 % 1018 hPa 0,0 l/m 18,3 km/h NW67.5 310 5 min 20,6 C
24.04.2018 15:08 22,8 C 19,3 C 20,5 C 54 % 81 % 67 % 52 % 1018 hPa 0,0 l/m 12,8 km/h W67.5 280 5 min 20,5 C
24.04.2018 15:03 22,8 C 19,0 C 20,4 C 54 % 89 % 66 % 52 % 1018 hPa 0,0 l/m 13,5 km/h W45 275 5 min 20,4 C
24.04.2018 14:58 22,8 C 19,0 C 20,4 C 54 % 83 % 65 % 51 % 1018 hPa 0,0 l/m 16,7 km/h W45 280 5 min 20,4 C
24.04.2018 14:53 22,8 C 19,0 C 20,3 C 54 % 84 % 64 % 51 % 1018 hPa 0,0 l/m 12,0 km/h W-NW67.5 285 5 min 20,3 C
24.04.2018 14:48 22,8 C 19,1 C 20,3 C 54 % 78 % 66 % 50 % 1018 hPa 0,0 l/m 16,1 km/h W-NW67.5 300 5 min 20,3 C
24.04.2018 14:43 22,8 C 19,0 C 20,3 C 54 % 80 % 64 % 51 % 1018 hPa 0,0 l/m 17,4 km/h W67.5 275 5 min 20,3 C
24.04.2018 14:38 22,8 C 19,0 C 20,3 C 54 % 81 % 66 % 50 % 1018 hPa 0,0 l/m 19,9 km/h W-NW67.5 295 5 min 20,3 C
24.04.2018 14:33 22,8 C 19,1 C 20,4 C 54 % 79 % 66 % 51 % 1018 hPa 0,0 l/m 17,7 km/h W-NW67.5 290 5 min 20,4 C
24.04.2018 14:28 22,8 C 19,0 C 20,4 C 54 % 82 % 65 % 51 % 1018 hPa 0,0 l/m 16,5 km/h W-NW45 290 5 min 20,4 C
24.04.2018 14:23 22,8 C 19,1 C 20,3 C 54 % 78 % 66 % 50 % 1018 hPa 0,0 l/m 11,7 km/h W-NW45 295 5 min 20,3 C
24.04.2018 14:18 22,8 C 18,9 C 20,3 C 54 % 80 % 68 % 51 % 1018 hPa 0,0 l/m 14,3 km/h W-NW67.5 290 5 min 20,3 C
24.04.2018 14:13 22,7 C 18,9 C 20,3 C 54 % 79 % 67 % 51 % 1018 hPa 0,0 l/m 14,5 km/h W67.5 270 5 min 20,3 C
24.04.2018 14:08 22,7 C 18,9 C 20,3 C 54 % 82 % 67 % 51 % 1018 hPa 0,0 l/m 18,1 km/h W45 270 5 min 20,3 C
24.04.2018 14:03 22,7 C 18,9 C 20,3 C 54 % 80 % 68 % 52 % 1018 hPa 0,0 l/m 17,5 km/h W-NW22.5 290 5 min 20,3 C
24.04.2018 13:58 22,6 C 18,8 C 20,3 C 54 % 80 % 68 % 52 % 1018 hPa 0,0 l/m 14,9 km/h W-NW67.5 285 5 min 20,3 C
24.04.2018 13:53 22,6 C 18,8 C 20,3 C 54 % 82 % 68 % 52 % 1018 hPa 0,0 l/m 12,5 km/h W-NW45 290 5 min 20,3 C
24.04.2018 13:48 22,6 C 18,9 C 20,3 C 54 % 83 % 68 % 51 % 1019 hPa 0,0 l/m 16,1 km/h W-NW45 285 5 min 20,3 C
24.04.2018 13:43 22,6 C 18,9 C 20,3 C 54 % 84 % 68 % 52 % 1018 hPa 0,0 l/m 23,2 km/h W45 270 5 min 20,3 C
24.04.2018 13:38 22,6 C 18,7 C 20,3 C 53 % 87 % 68 % 52 % 1019 hPa 0,0 l/m 18,8 km/h W-NW67.5 285 5 min 20,3 C
24.04.2018 13:33 22,6 C 18,7 C 20,2 C 53 % 87 % 69 % 53 % 1019 hPa 0,0 l/m 6,7 km/h W67.5 260 5 min 20,2 C
24.04.2018 13:28 22,5 C 18,6 C 20,1 C 53 % 87 % 69 % 52 % 1019 hPa 0,0 l/m 23,2 km/h W22.5 275 5 min 20,1 C
24.04.2018 13:23 22,4 C 18,5 C 20,0 C 53 % 86 % 68 % 53 % 1019 hPa 0,0 l/m 19,4 km/h W67.5 270 5 min 20,0 C
24.04.2018 13:18 22,4 C 18,5 C 20,0 C 54 % 88 % 70 % 54 % 1019 hPa 0,0 l/m 18,8 km/h W22.5 270 5 min 20,0 C
24.04.2018 13:13 22,4 C 18,5 C 20,0 C 54 % 89 % 70 % 55 % 1019 hPa 0,0 l/m 22,3 km/h W67.5 270 5 min 20,0 C
24.04.2018 13:08 22,4 C 18,4 C 19,9 C 54 % 89 % 70 % 55 % 1019 hPa 0,0 l/m 17,1 km/h W-NW67.5 285 5 min 19,9 C
24.04.2018 13:03 22,4 C 18,3 C 19,8 C 54 % 88 % 69 % 56 % 1019 hPa 0,0 l/m 17,1 km/h W-NW67.5 285 5 min 19,8 C
24.04.2018 12:58 22,4 C 18,3 C 19,7 C 54 % 89 % 70 % 56 % 1019 hPa 0,0 l/m 17,7 km/h W45 280 5 min 19,7 C
24.04.2018 12:53 22,3 C 18,1 C 19,6 C 54 % 87 % 70 % 55 % 1019 hPa 0,0 l/m 21,1 km/h W-NW67.5 285 5 min 19,6 C
24.04.2018 12:48 22,3 C 18,0 C 19,6 C 54 % 89 % 71 % 56 % 1019 hPa 0,0 l/m 14,0 km/h W67.5 270 5 min 19,6 C
24.04.2018 12:43 22,3 C 17,9 C 19,4 C 54 % 88 % 69 % 55 % 1019 hPa 0,0 l/m 18,0 km/h W67.5 270 5 min 19,4 C
24.04.2018 12:38 22,2 C 17,9 C 19,3 C 54 % 89 % 70 % 55 % 1019 hPa 0,0 l/m 23,9 km/h W-NW67.5 295 5 min 19,3 C
24.04.2018 12:33 22,2 C 17,9 C 19,3 C 54 % 89 % 71 % 55 % 1019 hPa 0,0 l/m 17,9 km/h W45 275 5 min 19,3 C
24.04.2018 12:28 22,1 C 17,8 C 19,2 C 54 % 88 % 71 % 56 % 1019 hPa 0,0 l/m 21,5 km/h W-NW45 290 5 min 19,2 C
24.04.2018 12:23 22,1 C 17,5 C 19,1 C 54 % 88 % 71 % 56 % 1019 hPa 0,0 l/m 20,4 km/h W-NW67.5 295 5 min 19,1 C
24.04.2018 12:18 22,1 C 17,7 C 19,1 C 54 % 89 % 72 % 56 % 1019 hPa 0,0 l/m 25,0 km/h W45 270 5 min 19,1 C
24.04.2018 12:13 22,0 C 17,7 C 19,1 C 54 % 69 % 73 % 56 % 1019 hPa 0,0 l/m 18,5 km/h W67.5 275 0 min 19,1 C
24.04.2018 12:08 22,0 C 17,7 C 19,0 C 54 % 75 % 73 % 58 % 1019 hPa 0,0 l/m 21,3 km/h W-SW45 255 5 min 19,0 C
24.04.2018 12:03 22,0 C 17,5 C 19,0 C 54 % 87 % 73 % 58 % 1019 hPa 0,0 l/m 22,9 km/h W-SW67.5 250 5 min 19,0 C
24.04.2018 11:58 22,0 C 17,4 C 18,9 C 54 % 86 % 74 % 59 % 1019 hPa 0,0 l/m 16,1 km/h W45 275 5 min 18,9 C
24.04.2018 11:53 22,0 C 17,3 C 18,8 C 54 % 90 % 74 % 59 % 1019 hPa 0,0 l/m 23,1 km/h W67.5 280 5 min 18,8 C
24.04.2018 11:48 22,0 C 17,1 C 18,7 C 54 % 88 % 74 % 59 % 1019 hPa 0,0 l/m 9,9 km/h W67.5 265 5 min 18,7 C
24.04.2018 11:43 21,9 C 17,3 C 18,6 C 54 % 88 % 74 % 59 % 1019 hPa 0,0 l/m 21,2 km/h W-NW45 285 5 min 18,6 C
24.04.2018 11:38 21,9 C 17,2 C 18,6 C 54 % 84 % 75 % 59 % 1019 hPa 0,0 l/m 18,1 km/h W-NW22.5 285 5 min 18,6 C
24.04.2018 11:33 21,9 C 17,3 C 18,6 C 54 % 83 % 75 % 61 % 1019 hPa 0,0 l/m 14,9 km/h W67.5 280 5 min 18,6 C
24.04.2018 11:28 21,9 C 17,1 C 18,5 C 54 % 66 % 76 % 61 % 1019 hPa 0,0 l/m 18,6 km/h W45 280 0 min 18,5 C
24.04.2018 11:23 21,8 C 17,1 C 18,4 C 54 % 85 % 76 % 61 % 1019 hPa 0,0 l/m 15,0 km/h W67.5 270 5 min 18,4 C
24.04.2018 11:18 21,8 C 16,9 C 18,2 C 54 % 87 % 77 % 62 % 1019 hPa 0,0 l/m 16,4 km/h W67.5 265 5 min 18,2 C
24.04.2018 11:13 21,8 C 16,9 C 18,1 C 54 % 83 % 77 % 63 % 1019 hPa 0,0 l/m 18,8 km/h W67.5 280 5 min 18,1 C
24.04.2018 11:08 21,8 C 16,6 C 18,0 C 54 % 84 % 79 % 65 % 1019 hPa 0,0 l/m 22,9 km/h W45 270 5 min 18,0 C
24.04.2018 11:03 21,8 C 16,6 C 17,8 C 54 % 86 % 80 % 66 % 1019 hPa 0,0 l/m 16,8 km/h W67.5 265 5 min 17,8 C
24.04.2018 10:58 21,8 C 16,4 C 17,5 C 54 % 88 % 81 % 68 % 1019 hPa 0,0 l/m 13,8 km/h W-SW67.5 255 5 min 17,5 C
24.04.2018 10:53 21,8 C 16,2 C 17,3 C 54 % 89 % 82 % 70 % 1019 hPa 0,0 l/m 18,9 km/h W-SW67.5 245 5 min 17,3 C
24.04.2018 10:48 21,8 C 16,1 C 17,1 C 54 % 86 % 82 % 73 % 1019 hPa 0,0 l/m 17,1 km/h W67.5 275 5 min 17,1 C
24.04.2018 10:43 21,8 C 16,0 C 17,0 C 54 % 89 % 82 % 73 % 1019 hPa 0,0 l/m 7,4 km/h W-NW22.5 290 5 min 17,0 C
24.04.2018 10:38 21,7 C 15,9 C 16,9 C 54 % 55 % 83 % 74 % 1019 hPa 0,0 l/m 9,2 km/h W22.5 275 0 min 16,9 C
24.04.2018 10:33 21,8 C 15,9 C 16,9 C 54 % 77 % 82 % 74 % 1019 hPa 0,0 l/m 8,2 km/h W-NW45 285 5 min 16,9 C
24.04.2018 10:28 21,8 C 15,9 C 16,8 C 54 % 62 % 83 % 73 % 1019 hPa 0,0 l/m 1,1 km/h W45 260 0 min 16,8 C
24.04.2018 10:23 21,7 C 15,9 C 16,9 C 54 % 48 % 84 % 74 % 1019 hPa 0,0 l/m 11,2 km/h W45 270 0 min 16,9 C
24.04.2018 10:18 21,7 C 16,0 C 16,8 C 54 % 49 % 84 % 74 % 1019 hPa 0,0 l/m 2,3 km/h W-SW45 245 0 min 16,8 C
24.04.2018 10:13 21,7 C 16,0 C 16,7 C 54 % 51 % 84 % 75 % 1019 hPa 0,0 l/m 9,2 km/h S-SW45 205 0 min 16,7 C
24.04.2018 10:08 21,7 C 16,0 C 16,6 C 54 % 55 % 84 % 78 % 1019 hPa 0,0 l/m 1,8 km/h W-SW45 240 0 min 16,6 C
24.04.2018 10:03 21,8 C 16,1 C 16,6 C 54 % 53 % 85 % 80 % 1019 hPa 0,0 l/m 1,3 km/h W45 265 0 min 16,6 C
24.04.2018 09:58 21,8 C 15,9 C 16,5 C 54 % 53 % 84 % 81 % 1019 hPa 0,0 l/m 0,6 km/h W 260 0 min 16,5 C
24.04.2018 09:53 21,7 C 15,9 C 16,4 C 54 % 57 % 85 % 82 % 1020 hPa 0,0 l/m 6,5 km/h SW22.5 235 0 min 16,4 C
24.04.2018 09:48 21,7 C 15,9 C 16,3 C 54 % 61 % 85 % 84 % 1020 hPa 0,0 l/m 7,7 km/h S22.5 185 0 min 16,3 C
24.04.2018 09:43 21,7 C 16,0 C 16,2 C 54 % 70 % 85 % 85 % 1019 hPa 0,0 l/m 1,7 km/h W45 270 0 min 16,2 C
24.04.2018 09:38 21,8 C 15,9 C 16,1 C 54 % 62 % 85 % 86 % 1019 hPa 0,0 l/m 0,7 km/h NW45 315 0 min 16,1 C
24.04.2018 09:33 21,8 C 15,9 C 15,8 C 54 % 57 % 86 % 87 % 1020 hPa 0,0 l/m 4,6 km/h NW45 320 0 min 15,8 C
24.04.2018 09:28 21,8 C 15,8 C 15,6 C 54 % 85 % 87 % 88 % 1020 hPa 0,0 l/m 0,6 km/h W 275 5 min 15,6 C
24.04.2018 09:23 21,7 C 15,8 C 15,5 C 54 % 81 % 87 % 89 % 1019 hPa 0,0 l/m 5,5 km/h W 275 5 min 15,5 C
24.04.2018 09:18 21,8 C 15,7 C 15,4 C 54 % 83 % 87 % 89 % 1019 hPa 0,0 l/m 0,4 km/h W 275 5 min 15,4 C
24.04.2018 09:13 21,7 C 15,6 C 15,2 C 54 % 79 % 88 % 90 % 1019 hPa 0,0 l/m 4,6 km/h W 275 5 min 15,2 C
24.04.2018 09:08 21,8 C 15,4 C 15,0 C 54 % 79 % 89 % 90 % 1019 hPa 0,0 l/m 4,0 km/h W 275 5 min 15,0 C
24.04.2018 09:03 21,7 C 15,3 C 14,7 C 54 % 79 % 89 % 91 % 1019 hPa 0,0 l/m 1,0 km/h W 275 5 min 14,7 C
24.04.2018 08:58 21,7 C 15,0 C 14,4 C 54 % 81 % 89 % 91 % 1019 hPa 0,0 l/m 0,4 km/h W 275 5 min 14,4 C
24.04.2018 08:53 21,7 C 14,9 C 14,2 C 54 % 79 % 90 % 92 % 1020 hPa 0,0 l/m 0,0 km/h W 275 5 min 14,2 C
24.04.2018 08:48 21,7 C 14,7 C 14,0 C 54 % 81 % 90 % 92 % 1020 hPa 0,0 l/m 0,0 km/h W 275 5 min 14,0 C
24.04.2018 08:43 21,7 C 14,6 C 13,5 C 54 % 79 % 91 % 92 % 1020 hPa 0,0 l/m 0,0 km/h W 275 5 min 13,5 C
24.04.2018 08:38 21,7 C 14,3 C 13,3 C 54 % 78 % 91 % 93 % 1019 hPa 0,0 l/m 0,0 km/h W 275 5 min 13,3 C
24.04.2018 08:33 21,8 C 14,0 C 13,2 C 54 % 76 % 91 % 93 % 1020 hPa 0,0 l/m 0,0 km/h W 275 5 min 13,2 C
24.04.2018 08:28 21,7 C 13,8 C 12,9 C 54 % 78 % 92 % 93 % 1020 hPa 0,0 l/m 0,0 km/h W 275 5 min 12,9 C
24.04.2018 08:23 21,8 C 13,7 C 12,3 C 54 % 75 % 92 % 93 % 1020 hPa 0,0 l/m 0,3 km/h W 275 5 min 12,3 C
24.04.2018 08:18 21,8 C 13,5 C 12,3 C 54 % 78 % 92 % 93 % 1020 hPa 0,0 l/m 0,0 km/h W 275 5 min 12,3 C
24.04.2018 08:13 21,8 C 13,5 C 12,0 C 54 % 76 % 92 % 93 % 1020 hPa 0,0 l/m 0,0 km/h W 275 5 min 12,0 C
24.04.2018 08:08 21,8 C 12,9 C 11,7 C 54 % 70 % 93 % 93 % 1020 hPa 0,0 l/m 0,0 km/h W 275 0 min 11,7 C
24.04.2018 08:03 21,8 C 12,7 C 11,5 C 54 % 77 % 93 % 93 % 1020 hPa 0,0 l/m 0,0 km/h W 275 5 min 11,5 C
24.04.2018 07:58 21,7 C 12,4 C 11,2 C 54 % 69 % 93 % 92 % 1020 hPa 0,0 l/m 0,0 km/h W 275 0 min 11,2 C
24.04.2018 07:53 21,8 C 12,2 C 10,6 C 54 % 74 % 93 % 91 % 1020 hPa 0,0 l/m 0,0 km/h W 275 5 min 10,6 C
24.04.2018 07:48 21,8 C 11,8 C 10,4 C 54 % 72 % 93 % 91 % 1020 hPa 0,0 l/m 0,0 km/h W 275 5 min 10,4 C
24.04.2018 07:43 21,8 C 11,2 C 10,3 C 54 % 71 % 93 % 90 % 1020 hPa 0,0 l/m 0,0 km/h W 275 0 min 10,3 C
24.04.2018 07:38 21,8 C 11,0 C 10,1 C 54 % 69 % 93 % 90 % 1020 hPa 0,0 l/m 0,0 km/h W 275 0 min 10,1 C
24.04.2018 07:33 21,8 C 10,9 C 9,9 C 54 % 65 % 93 % 89 % 1020 hPa 0,0 l/m 0,0 km/h W 275 0 min 9,9 C
24.04.2018 07:28 21,8 C 10,8 C 9,8 C 54 % 59 % 93 % 89 % 1020 hPa 0,0 l/m 0,0 km/h W 275 0 min 9,8 C
24.04.2018 07:23 21,8 C 10,7 C 9,7 C 54 % 60 % 93 % 89 % 1020 hPa 0,0 l/m 0,0 km/h W 275 0 min 9,7 C
24.04.2018 07:18 21,8 C 10,6 C 9,6 C 54 % 57 % 92 % 89 % 1020 hPa 0,0 l/m 0,0 km/h W 275 0 min 9,6 C
24.04.2018 07:13 21,8 C 10,5 C 9,6 C 54 % 54 % 92 % 88 % 1020 hPa 0,0 l/m 0,0 km/h W 275 0 min 9,6 C
24.04.2018 07:08 21,8 C 10,5 C 9,5 C 54 % 41 % 92 % 88 % 1020 hPa 0,0 l/m 0,0 km/h W 275 0 min 9,5 C
24.04.2018 07:03 21,8 C 10,5 C 9,5 C 54 % 39 % 92 % 88 % 1020 hPa 0,0 l/m 0,0 km/h W 275 0 min 9,5 C
24.04.2018 06:58 21,8 C 10,5 C 9,5 C 54 % 26 % 92 % 88 % 1020 hPa 0,0 l/m 0,0 km/h W 275 0 min 9,5 C
24.04.2018 06:53 21,8 C 10,5 C 9,5 C 54 % 24 % 92 % 88 % 1019 hPa 0,0 l/m 0,0 km/h W 275 0 min 9,5 C
24.04.2018 06:48 21,8 C 10,5 C 9,4 C 54 % 20 % 92 % 87 % 1019 hPa 0,0 l/m 0,0 km/h W 275 0 min 9,4 C
24.04.2018 06:43 21,8 C 10,4 C 9,4 C 54 % 16 % 92 % 87 % 1019 hPa 0,0 l/m 0,0 km/h W 275 0 min 9,4 C
24.04.2018 06:38 21,8 C 10,3 C 9,5 C 54 % 13 % 91 % 87 % 1019 hPa 0,0 l/m 0,0 km/h W 275 0 min 9,5 C
24.04.2018 06:33 21,9 C 10,3 C 9,5 C 54 % 11 % 91 % 87 % 1019 hPa 0,0 l/m 0,0 km/h W 275 0 min 9,5 C
24.04.2018 06:28 21,9 C 10,4 C 9,5 C 54 % 8 % 91 % 87 % 1019 hPa 0,0 l/m 0,0 km/h W 275 0 min 9,5 C
24.04.2018 06:23 21,9 C 10,5 C 9,5 C 54 % 7 % 92 % 87 % 1019 hPa 0,0 l/m 0,0 km/h W 275 0 min 9,5 C
24.04.2018 06:18 21,9 C 10,5 C 9,6 C 54 % 4 % 92 % 87 % 1019 hPa 0,0 l/m 0,0 km/h W 275 0 min 9,6 C
24.04.2018 06:13 21,9 C 10,5 C 9,6 C 54 % 2 % 92 % 87 % 1019 hPa 0,0 l/m 0,0 km/h W 275 0 min 9,6 C
24.04.2018 06:08 21,9 C 10,5 C 9,7 C 55 % 1 % 92 % 87 % 1019 hPa 0,0 l/m 0,0 km/h W 275 0 min 9,7 C
24.04.2018 06:03 22,0 C 10,5 C 9,7 C 54 % 1 % 92 % 87 % 1019 hPa 0,0 l/m 0,0 km/h W 275 0 min 9,7 C
24.04.2018 05:58 22,0 C 10,5 C 9,7 C 54 % 0 % 92 % 87 % 1019 hPa 0,0 l/m 0,0 km/h W 275 0 min 9,7 C
24.04.2018 05:53 22,0 C 10,5 C 9,8 C 54 % 0 % 92 % 86 % 1019 hPa 0,0 l/m 0,0 km/h W 275 0 min 9,8 C
24.04.2018 05:48 22,0 C 10,5 C 9,8 C 54 % 0 % 92 % 86 % 1019 hPa 0,0 l/m 0,0 km/h W 275 0 min 9,8 C
24.04.2018 05:43 22,0 C 10,5 C 9,8 C 54 % 0 % 92 % 86 % 1019 hPa 0,0 l/m 0,0 km/h W 275 0 min 9,8 C
24.04.2018 05:38 22,0 C 10,5 C 9,8 C 54 % 0 % 92 % 86 % 1019 hPa 0,0 l/m 0,0 km/h W 275 0 min 9,8 C
24.04.2018 05:33 22,0 C 10,5 C 9,9 C 54 % 0 % 92 % 86 % 1019 hPa 0,0 l/m 0,0 km/h W 275 0 min 9,9 C
24.04.2018 05:28 22,0 C 10,5 C 9,9 C 54 % 0 % 92 % 86 % 1019 hPa 0,0 l/m 0,0 km/h W 275 0 min 9,9 C
24.04.2018 05:23 22,0 C 10,5 C 9,9 C 54 % 0 % 92 % 86 % 1019 hPa 0,0 l/m 0,0 km/h W 275 0 min 9,9 C
24.04.2018 05:18 22,0 C 10,5 C 10,0 C 54 % 0 % 92 % 85 % 1019 hPa 0,0 l/m 0,0 km/h W 275 0 min 10,0 C
24.04.2018 05:13 22,0 C 10,5 C 10,0 C 54 % 0 % 92 % 85 % 1019 hPa 0,0 l/m 0,0 km/h W 275 0 min 10,0 C
24.04.2018 05:08 22,0 C 10,5 C 10,1 C 54 % 0 % 92 % 85 % 1019 hPa 0,0 l/m 0,0 km/h W 275 0 min 10,1 C
24.04.2018 05:03 22,0 C 10,5 C 10,1 C 54 % 0 % 92 % 85 % 1019 hPa 0,0 l/m 0,0 km/h W 275 0 min 10,1 C
24.04.2018 04:58 22,0 C 10,5 C 10,2 C 54 % 0 % 92 % 85 % 1019 hPa 0,0 l/m 0,0 km/h W 275 0 min 10,2 C
24.04.2018 04:53 22,0 C 10,5 C 10,2 C 54 % 0 % 92 % 85 % 1019 hPa 0,0 l/m 0,0 km/h W 275 0 min 10,2 C
24.04.2018 04:48 22,0 C 10,5 C 10,2 C 54 % 0 % 92 % 85 % 1019 hPa 0,0 l/m 0,0 km/h W 275 0 min 10,2 C
24.04.2018 04:43 22,0 C 10,5 C 10,3 C 54 % 0 % 92 % 85 % 1019 hPa 0,0 l/m 0,0 km/h W 275 0 min 10,3 C
24.04.2018 04:38 22,0 C 10,5 C 10,3 C 54 % 0 % 92 % 85 % 1019 hPa 0,0 l/m 0,0 km/h W 275 0 min 10,3 C
24.04.2018 04:33 22,0 C 10,5 C 10,4 C 54 % 0 % 92 % 85 % 1019 hPa 0,0 l/m 0,0 km/h W 275 0 min 10,4 C
24.04.2018 04:28 22,0 C 10,5 C 10,5 C 54 % 0 % 92 % 85 % 1019 hPa 0,0 l/m 0,0 km/h W 275 0 min 10,5 C
24.04.2018 04:23 22,0 C 10,5 C 10,5 C 54 % 0 % 92 % 85 % 1019 hPa 0,0 l/m 0,0 km/h W 275 0 min 10,5 C
24.04.2018 04:18 22,1 C 10,5 C 10,5 C 54 % 0 % 92 % 85 % 1019 hPa 0,0 l/m 0,0 km/h W 275 0 min 10,5 C
24.04.2018 04:13 22,1 C 10,5 C 10,6 C 54 % 0 % 92 % 85 % 1019 hPa 0,0 l/m 0,0 km/h W 275 0 min 10,6 C
24.04.2018 04:08 22,1 C 10,5 C 10,7 C 54 % 0 % 92 % 84 % 1019 hPa 0,0 l/m 0,0 km/h W 275 0 min 10,7 C
24.04.2018 04:03 22,1 C 10,5 C 10,7 C 54 % 0 % 92 % 84 % 1019 hPa 0,0 l/m 0,0 km/h W 275 0 min 10,7 C
24.04.2018 03:58 22,1 C 10,5 C 10,8 C 54 % 0 % 92 % 84 % 1019 hPa 0,0 l/m 0,0 km/h W 275 0 min 10,8 C
24.04.2018 03:53 22,1 C 10,5 C 10,9 C 54 % 0 % 92 % 84 % 1019 hPa 0,0 l/m 0,0 km/h W 275 0 min 10,9 C
24.04.2018 03:48 22,1 C 10,5 C 10,9 C 54 % 0 % 92 % 84 % 1019 hPa 0,0 l/m 0,0 km/h W 275 0 min 10,9 C
24.04.2018 03:43 22,1 C 10,5 C 10,9 C 54 % 0 % 92 % 84 % 1019 hPa 0,0 l/m 0,0 km/h W 275 0 min 10,9 C
24.04.2018 03:38 22,1 C 10,5 C 11,0 C 54 % 0 % 92 % 84 % 1019 hPa 0,0 l/m 0,0 km/h W 275 0 min 11,0 C
24.04.2018 03:33 22,1 C 10,5 C 11,0 C 54 % 0 % 92 % 84 % 1019 hPa 0,0 l/m 0,0 km/h W 275 0 min 11,0 C
24.04.2018 03:28 22,1 C 10,5 C 11,1 C 54 % 0 % 92 % 84 % 1019 hPa 0,0 l/m 0,0 km/h W 275 0 min 11,1 C
24.04.2018 03:23 22,1 C 10,5 C 11,2 C 54 % 0 % 92 % 84 % 1019 hPa 0,0 l/m 0,0 km/h W 275 0 min 11,2 C
24.04.2018 03:18 22,1 C 10,5 C 11,2 C 54 % 0 % 92 % 84 % 1019 hPa 0,0 l/m 0,0 km/h W 275 0 min 11,2 C
24.04.2018 03:13 22,2 C 10,5 C 11,3 C 54 % 0 % 92 % 84 % 1019 hPa 0,0 l/m 0,0 km/h W 275 0 min 11,3 C
24.04.2018 03:08 22,2 C 10,5 C 11,3 C 54 % 0 % 92 % 84 % 1019 hPa 0,0 l/m 0,0 km/h W 275 0 min 11,3 C
24.04.2018 03:03 22,2 C 10,5 C 11,4 C 54 % 0 % 92 % 83 % 1019 hPa 0,0 l/m 0,0 km/h W 275 0 min 11,4 C
24.04.2018 02:58 22,2 C 10,5 C 11,4 C 54 % 0 % 92 % 83 % 1019 hPa 0,0 l/m 0,0 km/h W 275 0 min 11,4 C
24.04.2018 02:53 22,2 C 10,5 C 11,4 C 54 % 0 % 92 % 82 % 1019 hPa 0,0 l/m 0,0 km/h W 275 0 min 11,4 C
24.04.2018 02:48 22,2 C 10,5 C 11,5 C 54 % 0 % 92 % 82 % 1019 hPa 0,0 l/m 0,0 km/h W 275 0 min 11,5 C
24.04.2018 02:43 22,2 C 10,5 C 11,6 C 54 % 0 % 92 % 82 % 1019 hPa 0,0 l/m 0,0 km/h W 275 0 min 11,6 C
24.04.2018 02:38 22,2 C 10,5 C 11,6 C 54 % 0 % 92 % 82 % 1019 hPa 0,0 l/m 0,0 km/h W 275 0 min 11,6 C
24.04.2018 02:33 22,2 C 10,5 C 11,7 C 54 % 0 % 92 % 82 % 1019 hPa 0,0 l/m 0,0 km/h W 275 0 min 11,7 C
24.04.2018 02:28 22,2 C 10,5 C 11,8 C 54 % 0 % 92 % 82 % 1019 hPa 0,0 l/m 0,0 km/h W 275 0 min 11,8 C
24.04.2018 02:23 22,2 C 10,5 C 11,9 C 54 % 0 % 92 % 82 % 1019 hPa 0,0 l/m 0,0 km/h W 275 0 min 11,9 C
24.04.2018 02:18 22,2 C 10,5 C 12,0 C 54 % 0 % 92 % 82 % 1019 hPa 0,0 l/m 0,0 km/h W 275 0 min 12,0 C
24.04.2018 02:13 22,2 C 10,5 C 12,0 C 54 % 0 % 92 % 82 % 1019 hPa 0,0 l/m 0,0 km/h W 275 0 min 12,0 C
24.04.2018 02:08 22,2 C 10,5 C 12,1 C 54 % 0 % 92 % 81 % 1019 hPa 0,0 l/m 0,0 km/h W 275 0 min 12,1 C
24.04.2018 02:03 22,2 C 10,5 C 12,1 C 54 % 0 % 92 % 81 % 1019 hPa 0,0 l/m 0,0 km/h W 275 0 min 12,1 C
24.04.2018 01:58 22,2 C 10,5 C 12,2 C 54 % 0 % 92 % 81 % 1019 hPa 0,0 l/m 0,0 km/h W 275 0 min 12,2 C
24.04.2018 01:53 22,2 C 14,6 C 12,3 C 54 % 0 % 87 % 80 % 1019 hPa 0,0 l/m 0,0 km/h W 275 0 min 12,3 C
24.04.2018 01:48 22,2 C 14,6 C 12,3 C 54 % 0 % 87 % 80 % 1019 hPa 0,0 l/m 0,0 km/h W 275 0 min 12,3 C
24.04.2018 01:43 22,2 C 14,6 C 12,4 C 54 % 0 % 87 % 80 % 1019 hPa 0,0 l/m 0,0 km/h W 275 0 min 12,4 C
24.04.2018 01:38 22,3 C 14,6 C 12,4 C 54 % 0 % 87 % 80 % 1019 hPa 0,0 l/m 0,0 km/h W 275 0 min 12,4 C
24.04.2018 01:33 22,3 C 14,6 C 12,4 C 54 % 0 % 87 % 80 % 1019 hPa 0,0 l/m 0,0 km/h W 275 0 min 12,4 C
24.04.2018 01:28 22,3 C 14,6 C 12,6 C 54 % 0 % 87 % 80 % 1019 hPa 0,0 l/m 0,0 km/h W 275 0 min 12,6 C
24.04.2018 01:23 22,3 C 14,6 C 12,7 C 54 % 0 % 87 % 79 % 1019 hPa 0,0 l/m 0,0 km/h W 275 0 min 12,7 C
24.04.2018 01:18 22,3 C 14,6 C 12,7 C 54 % 0 % 87 % 79 % 1019 hPa 0,0 l/m 0,0 km/h W 275 0 min 12,7 C
24.04.2018 01:13 22,3 C 14,6 C 12,8 C 54 % 0 % 87 % 79 % 1019 hPa 0,0 l/m 0,0 km/h W 275 0 min 12,8 C
24.04.2018 01:08 22,3 C 14,6 C 12,9 C 54 % 0 % 87 % 79 % 1019 hPa 0,0 l/m 0,0 km/h W 275 0 min 12,9 C
24.04.2018 01:03 22,3 C 14,6 C 12,9 C 54 % 0 % 87 % 79 % 1019 hPa 0,0 l/m 0,0 km/h W 275 0 min 12,9 C
24.04.2018 00:58 22,3 C 14,6 C 13,0 C 54 % 0 % 87 % 79 % 1019 hPa 0,0 l/m 0,0 km/h W 275 0 min 13,0 C
24.04.2018 00:53 22,3 C 14,6 C 13,1 C 54 % 0 % 87 % 78 % 1019 hPa 0,0 l/m 0,0 km/h W 275 0 min 13,1 C
24.04.2018 00:48 22,3 C 14,6 C 13,2 C 54 % 0 % 87 % 78 % 1019 hPa 0,0 l/m 0,0 km/h W 275 0 min 13,2 C
24.04.2018 00:43 22,3 C 14,6 C 13,2 C 54 % 0 % 87 % 78 % 1019 hPa 0,0 l/m 0,0 km/h W 275 0 min 13,2 C
24.04.2018 00:38 22,3 C 14,6 C 13,3 C 54 % 0 % 87 % 78 % 1019 hPa 0,0 l/m 0,0 km/h W 275 0 min 13,3 C
24.04.2018 00:33 22,4 C 14,6 C 13,5 C 54 % 0 % 87 % 78 % 1019 hPa 0,0 l/m 0,0 km/h W 275 0 min 13,5 C
24.04.2018 00:28 22,4 C 14,6 C 13,5 C 54 % 0 % 87 % 78 % 1019 hPa 0,0 l/m 0,0 km/h W 275 0 min 13,5 C
24.04.2018 00:23 22,4 C 14,6 C 13,6 C 54 % 0 % 87 % 78 % 1019 hPa 0,0 l/m 0,0 km/h W 275 0 min 13,6 C
24.04.2018 00:18 22,4 C 14,6 C 13,8 C 54 % 0 % 87 % 77 % 1019 hPa 0,0 l/m 0,0 km/h W 275 0 min 13,8 C
24.04.2018 00:13 22,4 C 14,6 C 13,9 C 54 % 0 % 87 % 77 % 1019 hPa 0,0 l/m 0,0 km/h W 275 0 min 13,9 C
24.04.2018 00:08 22,4 C 14,6 C 13,9 C 54 % 0 % 87 % 77 % 1019 hPa 0,0 l/m 0,0 km/h W 275 0 min 13,9 C
24.04.2018 00:03 22,4 C 14,6 C 14,1 C 54 % 0 % 87 % 77 % 1019 hPa 0,0 l/m 0,0 km/h W 275 0 min 14,1 C
_ Min-Zeit 07:58 06:33 06:43 18:38 - 17:48 17:23 18:48 - 00:03 - - - 06:43
Minimum _ 21,7 C 10,3 C 9,4 C 51 % - 62 % 44 % 1015 hPa - 0,0 km/h - - - 9,4 C
_ Max-Zeit 17:13 15:58 17:58 06:08 11:53 07:23 08:03 06:58 00:03 12:18 - - 07:48 17:58
Maximum _ 23,4 C 19,5 C 21,5 C 55 % 90 % 93 % 93 % 1020 hPa 0,0 l/m 25,0 km/h
W
- - 5 min 21,5 C
Durchschnitt _ 22,3 C 15,3 C 15,8 C 54 % #9:00 h 80 % 69 % 1018 hPa #0,0 l/m 7,6 km/h W - #9:00 h 15,8 C